RH
17 16 23 11 13 16 18 14 25 47 45 38 31 38 53 55 66 84 56 62 66 72 77 73 73 71 71 72 71 69 66 58 57 57 47 41 40 42 44 50 57 74 74 67 63 53 40 42 46
18 16 8 7 15 17 14 37 38 48 52 56 46 34 43 68 51 64 66 63 64 73 78 78 70 72 76 73 71 62 55 58 63 38 36 38 41 49 55 60 71 71 75 71 59 31 28 27 26
18 12 8 10 13 16 13 32 34 32 36 55 50 37 47 69 62 64 68 64 62 68 79 73 70 75 77 76 65 54 60 60 48 40 37 38 50 60 62 68 70 70 72 64 43 33 31 29 26
11 9 6 13 15 11 21 34 27 28 30 31 34 46 42 56 56 67 75 67 68 71 87 73 75 77 78 74 63 57 57 48 39 32 34 43 56 59 62 63 56 53 48 39 37 36 36 32 29
9 9 9 11 12 10 9 27 28 42 43 31 32 56 48 57 68 73 77 78 74 82 77 78 74 76 75 63 58 53 49 44 33 29 38 50 51 53 54 48 46 44 42 42 41 40 37 33 32
9 8 12 13 11 19 14 32 44 55 56 24 34 38 44 63 68 72 80 82 81 86 82 85 83 83 71 63 58 54 52 44 32 35 48 48 50 49 47 46 45 43 40 40 40 35 32 33 35
10 10 10 10 11 14 20 30 42 38 34 26 21 50 57 49 72 75 71 87 99 95 89 87 90 80 73 58 54 55 54 39 36 47 49 48 47 46 44 43 44 45 44 42 41 33 35 40 39
7 9 11 10 10 27 28 48 60 64 41 32 44 30 49 66 82 73 64 81 93 86 83 89 85 83 68 59 54 53 49 42 50 49 48 48 45 48 66 59 45 44 44 43 42 34 36 40 41
7 10 13 11 19 51 44 45 34 23 27 32 42 48 50 68 85 69 80 94 92 92 91 82 85 77 56 52 54 50 47 52 52 49 50 59 62 66 64 46 42 43 44 43 42 35 41 44 45
9 13 11 13 52 63 68 90 23 23 24 28 43 74 67 65 65 89 95 98 98 93 73 68 76 70 61 58 53 52 48 54 59 51 66 69 69 63 56 41 41 44 43 50 45 43 46 49 46
9 12 9 11 38 50 62 39 22 24 27 28 38 68 71 68 76 74 81 74 81 83 73 64 61 58 52 48 61 64 64 67 70 71 69 66 64 67 66 54 54 58 49 57 47 47 49 48 47
10 8 8 12 38 42 45 26 31 30 35 31 45 63 66 62 62 68 74 68 58 53 61 65 58 50 48 53 52 57 66 65 68 71 74 60 67 65 59 53 52 50 47 47 49 51 48 46 46
9 10 9 19 19 20 19 30 48 37 24 41 56 64 58 46 54 56 62 58 48 52 59 63 58 52 48 50 62 63 66 80 75 82 79 70 69 66 61 57 54 50 51 52 52 49 49 49 48
9 11 17 18 15 16 29 41 54 49 41 46 53 52 44 37 40 43 40 42 45 48 55 58 59 55 52 61 66 70 75 80 85 80 83 71 59 58 67 60 55 54 54 48 50 53 52 49 46
11 12 14 14 15 21 45 40 28 24 30 38 38 37 33 30 33 31 34 38 38 42 50 54 58 62 70 73 71 75 74 58 57 79 70 77 64 69 62 60 56 58 56 54 56 54 49 46 45
13 13 18 15 12 18 32 48 22 18 24 28 28 28 27 27 27 29 32 33 38 44 49 57 63 73 75 72 68 48 49 71 69 73 76 84 74 70 65 62 58 49 55 56 58 50 50 47 43
13 18 14 15 10 16 28 38 20 17 22 25 25 24 22 22 23 25 30 31 38 46 52 58 69 76 70 56 57 72 62 71 71 72 67 75 70 65 54 56 60 60 55 52 52 56 51 43 39
22 17 17 13 10 11 22 23 18 16 21 25 25 25 26 24 22 23 25 29 36 48 56 60 79 86 63 59 73 71 66 54 64 67 67 59 57 61 59 60 63 56 52 52 55 54 48 44 42
16 17 14 10 9 11 22 17 14 14 17 26 27 29 30 28 29 32 30 28 32 56 64 65 81 87 72 82 73 70 73 68 66 66 63 64 62 60 57 54 55 55 51 48 47 47 50 49 45
15 15 19 11 10 10 11 10 11 14 16 19 26 29 31 33 33 42 38 32 36 60 64 75 81 82 80 69 65 66 63 63 62 59 63 58 58 57 58 59 53 50 50 45 42 46 49 50 47
14 14 18 16 11 10 13 11 15 14 14 15 21 24 27 32 39 44 42 44 46 63 67 77 82 82 75 66 58 56 54 55 55 58 61 58 58 57 54 54 52 51 49 47 47 48 49 51 49
16 19 17 15 16 20 20 27 18 17 19 18 19 22 26 28 34 41 47 48 52 69 71 76 77 75 71 55 52 52 54 54 50 51 55 58 58 54 52 50 49 49 51 51 50 49 50 52 53
21 21 19 13 16 27 21 29 29 21 26 24 27 25 25 26 30 38 46 49 64 69 73 72 71 69 61 50 48 50 48 50 51 51 56 55 56 54 51 44 45 50 52 52 50 51 54 55 55
19 19 17 18 19 54 39 34 29 29 27 28 24 27 28 30 36 37 43 55 62 68 69 70 64 52 51 49 48 49 47 48 50 49 49 43 37 36 37 39 42 46 47 50 50 48 53 57 58
15 18 36 74 73 44 16 18 28 24 25 63 29 27 30 36 39 40 47 53 55 57 55 51 45 45 49 50 52 55 54 47 43 38 36 38 38 35 36 42 46 46 45 45 46 48 51 58 60
39 15 39 62 94 44 19 21 18 18 17 18 25 31 35 39 42 42 42 41 46 51 52 49 44 45 49 53 54 52 45 39 35 40 44 42 35 39 41 39 39 40 40 40 42 45 50 51 60
17 21 18 32 46 57 22 11 22 18 19 19 30 33 38 38 39 37 34 36 42 47 50 47 42 44 51 52 47 40 39 40 41 46 40 37 39 38 34 39 40 40 41 45 46 47 48 54 61
20 16 30 24 40 41 19 15 34 24 20 22 30 35 37 37 36 33 30 34 38 43 45 45 43 44 49 46 41 44 45 46 41 40 38 39 38 39 41 41 40 42 46 48 47 55 58 62 68
24 24 19 17 29 48 49 24 14 16 17 21 25 32 34 37 34 32 30 32 37 42 46 48 46 44 44 41 42 45 46 41 40 39 37 37 38 42 43 42 42 45 47 50 56 61 64 62 63
18 23 21 55 33 36 56 38 14 15 14 19 21 25 30 33 32 30 31 33 37 42 46 49 47 41 41 39 44 46 42 42 37 35 35 36 40 44 44 42 44 48 49 52 54 62 64 62 62
Wind_Speed
9 9 11 15 6 7 16 19 12 10 9 16 14 15 19 17 9 4 17 34 34 33 30 28 27 25 23 22 20 19 17 16 17 18 18 18 18 18 18 18 19 20 20 20 19 19 20 20 20
10 15 13 6 9 12 13 15 17 13 8 11 14 9 16 16 13 13 14 31 31 30 29 26 26 25 23 21 19 19 17 17 17 18 18 18 18 17 17 18 19 19 19 20 21 22 23 24 23
10 12 7 6 12 14 13 15 13 9 11 10 6 10 7 3 6 3 19 29 30 29 27 27 25 24 22 19 19 19 17 18 18 18 18 17 17 17 18 18 18 18 18 19 21 23 24 24 25
9 10 7 9 18 21 6 11 7 11 13 9 12 10 7 9 3 8 19 27 28 26 24 27 24 24 20 17 17 18 18 18 18 18 17 16 16 16 16 17 17 18 18 19 20 21 21 21 23
16 7 11 14 18 20 4 14 10 13 5 4 9 8 7 5 17 9 14 17 24 27 27 26 22 21 21 18 16 18 18 17 18 18 16 16 16 16 16 16 17 16 17 17 17 17 18 20 22
9 10 13 15 21 15 8 18 15 16 15 4 12 9 6 11 14 7 6 9 17 25 29 25 22 21 21 18 18 17 17 17 17 17 16 16 16 15 14 14 15 15 15 16 15 16 17 19 20
14 12 16 20 18 11 4 15 12 7 5 7 3 10 11 13 15 9 9 9 16 27 23 23 22 21 21 21 18 17 16 17 17 17 17 16 14 13 11 11 11 11 11 12 12 13 13 14 17
12 12 21 19 18 5 9 9 13 3 4 4 10 3 11 23 23 16 7 13 18 25 18 22 23 23 23 22 19 17 16 16 17 17 15 14 13 11 9 8 7 8 7 7 9 10 10 13 11
17 12 14 19 8 3 14 8 14 7 9 4 1 4 23 25 25 28 19 14 22 25 22 20 22 22 22 21 18 16 16 16 16 15 13 13 9 9 6 5 5 6 5 7 9 10 10 16 16
12 11 19 4 12 4 6 13 6 8 12 11 12 17 26 27 25 24 16 14 17 30 22 18 21 23 20 18 18 17 18 17 14 11 7 5 5 7 2 3 3 5 6 5 7 9 10 12 12
15 16 13 15 22 22 14 22 3 3 2 4 11 17 17 20 20 20 24 23 30 27 23 22 24 20 23 19 19 16 17 15 11 7 7 8 5 3 1 1 2 2 4 5 8 6 8 9 12
14 15 16 12 18 18 16 11 13 8 4 8 15 20 17 16 15 15 18 22 26 24 25 22 21 15 22 18 19 17 17 18 13 9 6 3 4 6 4 3 4 3 7 7 8 9 8 12 13
14 16 8 10 7 5 11 21 10 6 10 2 18 18 16 14 17 21 21 23 24 22 22 20 21 18 20 18 19 21 14 15 9 8 6 7 9 6 5 4 4 5 2 3 5 11 14 15 16
10 13 11 5 9 7 12 15 16 25 11 12 17 17 12 13 20 22 21 23 23 22 23 22 20 20 19 18 17 16 13 12 8 5 4 4 4 3 4 6 2 1 3 9 12 11 14 15 17
6 10 8 5 7 13 27 14 3 12 19 16 15 15 14 13 19 19 22 21 25 24 24 24 24 22 21 21 19 16 14 10 6 4 3 2 4 5 4 4 2 3 8 8 7 11 13 15 16
11 9 6 8 11 9 15 3 12 7 12 14 16 15 14 13 17 18 23 20 25 27 26 25 22 23 24 21 18 16 12 5 7 3 7 5 4 5 5 1 3 5 7 6 7 10 13 15 17
5 9 13 9 10 9 7 9 9 6 14 14 11 12 12 13 16 16 21 20 23 26 24 22 22 26 26 22 17 10 7 5 5 3 5 5 5 4 3 6 5 3 4 5 5 9 13 16 18
7 10 12 11 14 12 12 12 12 12 11 13 13 13 12 12 13 21 19 20 20 27 26 20 22 22 23 18 9 5 4 1 2 6 6 8 6 6 6 3 1 3 4 4 8 9 11 14 17
8 12 11 10 7 11 15 16 16 13 14 13 12 12 12 13 13 13 10 14 17 28 25 24 21 16 18 12 8 5 7 10 10 9 9 7 6 6 5 3 2 2 4 7 8 8 11 12 15
10 13 5 7 5 6 11 10 15 14 15 15 13 14 14 13 12 14 14 14 17 26 25 26 24 19 16 14 9 10 12 11 10 11 9 9 8 6 3 2 1 3 5 9 9 10 12 13 14
14 5 6 11 7 7 11 10 13 12 14 15 15 16 15 17 16 13 13 13 13 22 27 26 22 16 18 16 15 15 14 13 13 11 10 10 8 5 2 1 2 4 6 10 12 13 13 10 15
8 12 9 13 8 8 7 7 5 11 12 14 15 13 14 16 15 15 15 17 18 20 23 23 21 20 22 19 17 18 16 15 16 15 16 13 9 5 3 4 5 7 8 11 13 13 16 15 14
3 12 13 8 8 3 9 8 18 10 14 17 13 13 15 16 16 16 17 18 15 19 19 21 24 26 20 17 17 17 10 14 10 10 10 7 5 7 7 7 5 7 9 12 16 19 17 12 14
10 9 10 9 6 3 19 13 7 13 17 14 15 14 12 9 9 10 17 18 20 22 26 27 24 20 17 14 9 12 10 11 12 9 8 4 3 3 4 4 7 11 14 14 16 18 17 15 18
9 9 2 8 6 5 11 5 7 19 18 23 23 13 11 8 10 11 14 21 24 24 20 20 18 18 17 14 10 9 10 8 7 5 2 2 4 4 7 8 10 11 14 17 19 20 21 19 19
18 10 2 1 2 11 3 5 4 11 7 7 14 11 11 11 10 11 13 16 18 17 17 20 19 19 17 14 13 12 12 9 7 7 3 3 5 5 8 9 8 12 15 17 19 20 20 18 15
7 2 4 9 6 3 6 16 8 7 7 7 13 12 13 12 13 13 16 19 19 18 18 19 20 19 19 17 15 13 11 9 8 4 5 3 4 5 5 8 11 14 16 17 19 21 21 16 15
5 7 3 2 2 5 7 8 8 6 7 5 12 13 12 12 13 13 16 18 21 20 21 19 18 20 21 19 15 12 11 8 6 5 5 5 5 5 8 9 12 14 15 16 18 13 14 18 17
5 6 5 6 4 1 4 4 6 8 6 5 6 14 13 14 13 13 15 20 19 20 19 18 18 18 20 18 16 14 10 12 9 10 8 6 6 7 8 11 13 14 16 13 17 18 18 13 11
7 10 11 3 5 2 1 5 5 5 5 5 6 8 13 13 14 14 16 19 18 18 17 17 17 16 18 18 17 15 12 10 14 7 8 7 6 8 9 11 13 14 13 13 14 15 14 9 9
Wind_Direction
251 249 244 256 244 230 253 253 86 49 39 13 33 48 84 42 27 29 157 127 132 134 142 144 144 142 137 132 127 119 117 111 106 104 100 96 92 86 82 78 77 74 68 66 63 61 59 55 52
247 256 248 275 238 262 257 53 53 71 102 55 24 30 43 57 76 115 104 134 137 135 134 143 145 140 138 129 125 119 115 111 109 104 101 99 94 88 85 85 84 78 73 69 66 64 62 56 52
252 265 257 237 235 249 269 73 116 95 136 137 108 59 38 62 31 67 143 141 135 136 139 147 145 142 129 126 121 118 116 111 106 104 102 99 94 91 92 93 86 80 74 69 67 63 59 55 52
234 228 250 255 256 261 142 127 116 118 115 69 97 90 93 61 47 133 148 134 133 138 144 146 146 131 124 124 118 118 117 113 114 109 106 99 96 94 97 95 89 83 78 74 69 67 60 55 51
233 270 237 252 249 254 222 108 91 64 28 148 167 140 116 72 93 129 149 147 141 146 143 143 140 127 131 125 124 123 122 123 116 114 108 105 102 99 98 94 88 82 77 69 66 61 57 52 45
231 224 258 247 247 4 28 116 100 94 281 118 112 127 105 153 79 81 132 138 150 144 139 137 133 136 126 127 127 122 126 125 118 114 112 109 105 100 97 93 88 81 74 68 60 57 55 46 36
249 247 243 261 278 226 199 99 101 131 277 66 86 115 130 139 138 131 104 117 120 137 138 135 134 130 127 127 122 126 131 124 119 115 114 108 104 99 96 90 84 76 73 65 56 49 47 38 33
237 256 271 277 268 144 68 90 108 358 248 314 3 357 142 132 138 121 94 149 104 129 136 144 137 135 127 120 126 132 130 122 120 115 115 113 105 104 92 76 76 70 68 61 47 41 33 10 32
245 265 264 266 312 0 341 5 170 181 143 121 219 167 115 131 120 113 113 125 141 147 164 146 141 128 122 125 130 131 131 124 123 120 125 122 114 116 95 76 74 73 66 45 30 35 38 25 7
234 241 253 301 134 155 85 256 126 155 149 137 128 104 115 121 125 132 171 169 159 136 146 150 136 126 122 129 131 135 132 128 127 117 104 118 122 117 4 61 68 69 38 37 31 25 25 18 14
225 247 275 300 129 141 178 239 140 153 110 334 137 113 114 131 140 147 165 160 138 146 144 133 132 135 135 139 141 144 146 133 125 136 125 136 150 134 269 56 84 24 22 40 7 16 13 10 4
242 249 263 348 147 152 183 204 75 71 250 277 126 131 135 151 144 145 141 128 144 123 120 126 131 141 133 143 159 162 137 133 140 152 146 112 157 159 155 74 86 37 53 12 17 16 14 357 354
235 268 231 65 85 127 99 83 36 322 216 111 117 132 148 149 143 150 149 142 134 129 130 135 144 137 148 159 122 123 135 120 135 150 165 165 148 134 112 98 35 26 10 38 17 351 351 351 351
204 270 102 132 128 93 75 47 113 260 268 146 136 140 147 146 158 149 140 138 137 139 141 146 149 153 156 137 128 123 121 120 144 168 216 163 85 42 26 133 141 128 13 8 14 5 350 348 345
296 242 131 230 165 110 125 215 239 248 146 139 147 147 154 170 142 141 141 137 143 147 143 154 156 162 144 134 129 137 137 146 159 161 143 260 208 173 183 147 215 314 338 20 360 355 342 340 338
256 232 182 193 218 133 91 242 206 147 131 151 160 152 159 138 142 150 139 157 146 145 155 152 155 150 134 134 146 152 155 144 108 130 141 191 171 170 188 153 323 14 28 356 349 350 344 337 335
213 239 206 191 224 141 127 267 260 177 152 148 154 153 157 154 144 142 150 164 157 147 152 154 154 141 147 154 156 151 111 121 86 104 87 161 164 140 104 66 59 61 347 350 355 338 342 342 338
201 216 231 210 202 201 135 224 175 182 182 157 158 159 158 162 157 156 167 161 165 151 152 158 149 155 159 168 156 166 173 321 150 112 118 128 120 107 112 141 291 39 342 321 331 332 337 337 338
239 226 226 222 160 210 176 190 167 180 183 173 169 173 164 166 126 138 166 172 166 147 149 163 162 167 170 177 180 157 138 127 132 136 138 124 145 136 147 108 53 350 345 355 334 326 335 335 338
231 245 275 103 177 247 210 220 157 179 193 188 181 170 169 162 172 156 192 195 168 151 160 164 166 181 184 190 191 173 148 151 148 150 143 159 143 150 140 141 346 355 329 324 327 333 325 324 338
236 250 154 251 169 231 287 222 162 174 197 204 186 186 183 178 168 172 189 182 187 153 158 160 168 183 198 205 161 150 150 145 144 150 163 162 157 160 176 207 272 306 315 323 322 319 307 332 323
276 334 234 256 192 230 7 284 136 174 215 214 196 194 185 186 173 169 182 194 185 149 161 170 175 190 204 174 167 162 166 174 193 184 172 159 165 186 208 255 286 292 305 307 306 303 305 306 297
137 266 279 262 244 136 323 301 207 216 217 209 217 201 190 190 181 172 175 178 148 158 162 181 192 198 183 169 172 180 190 135 127 121 135 153 195 230 239 253 275 295 303 304 301 297 291 283 301
162 231 252 270 263 111 241 230 154 202 235 265 193 201 206 181 154 173 161 155 175 176 190 196 198 166 156 178 177 177 179 141 148 162 161 198 187 300 315 316 326 325 324 316 312 311 300 294 290
227 245 220 15 350 261 268 217 202 207 219 184 220 179 181 158 172 180 163 182 175 174 170 158 165 155 166 173 173 159 146 141 137 134 128 12 327 317 330 330 330 318 312 310 306 303 299 282 281
296 250 353 182 184 277 38 242 96 98 95 108 145 152 162 163 160 160 154 152 158 168 174 168 177 161 169 169 165 160 151 150 145 148 129 240 294 304 306 312 308 314 314 312 310 307 303 301 276
348 300 357 217 197 326 271 280 112 102 106 137 140 162 167 173 168 166 169 163 162 174 180 183 176 172 170 174 164 158 154 150 166 227 193 233 255 272 289 314 312 311 311 312 308 303 300 304 309
259 342 301 227 283 267 303 270 111 154 133 169 161 170 177 177 176 177 176 172 172 181 182 191 187 179 174 170 165 163 171 170 163 179 228 237 258 265 292 309 312 310 308 305 306 315 322 319 318
171 243 240 291 261 10 325 71 45 80 108 166 212 171 179 181 188 187 184 182 178 180 179 189 196 186 167 171 175 172 177 174 190 198 213 227 247 275 299 310 311 307 304 319 321 318 321 321 325
319 285 217 168 275 178 42 291 92 102 100 162 216 198 178 185 192 189 189 179 182 178 181 190 203 187 178 184 177 179 191 199 204 199 223 225 242 278 300 306 303 300 310 325 317 311 310 317 319